Location: Unspecified
(0.0000°N, 0.0000°E)
Time: 15:08:43
(UTC+00:00)

Altair - Pass Details

Date: 03 November 2021
Orbit: 1502 x 1682 km, 47.2° (Epoch: 26 November)

Event Time Altitude Azimuth Distance (km) Brightness Sun altitude
Rises 11:09:31 0° 277° (W) 4,903 10.0 72.6°
Reaches altitude 10° 11:14:49 10° 255° (WSW) 3,934 9.8 73.2°
Maximum altitude 11:19:43 14° 225° (SW) 3,589 9.8 73.7°
Drops below altitude 10° 11:24:40 10° 195° (SSW) 3,941 10.0 74.1°
Sets 11:30:04 0° 172° (S) 4,917 10.4 74.4°
